[Date Prev][Date Next][Thread Prev][Thread Next] - [Date Index][Thread Index][Author Index]

2 Line ISS Keps 2-28



ISS
1 25544U 98067A   05059.31347068  .00014655  00000-0  12223-3 0  9119
2 25544  51.6456  97.7859 0004334 144.9465 322.0027 15.70335675358566
----
Via the sarex mailing list at AMSAT.ORG courtesy of AMSAT-NA.
To unsubscribe, send "unsubscribe sarex" to Majordomo@amsat.org



AMSAT Top AMSAT Home